Погода в Ханстантоне

Великобритания     52˚56′58″N   0˚30′23″E
темп.,
°C
ветер,
м/с
пор.,
м/с
влажн.,
%
обл.,
%
осадки,
мм/ч
давл.,
гПа
погр.,
м
16 января, сб
сб1600:00+2˚ю8118399 0.0 1027554
03:00+3˚ю101583100 0.0 1024709
06:00+2˚ю131794100 0.8 1020648
09:00+2˚ю131895100 7.0 1016634
12:00+4˚ю101594100 10.9 1015621
15:00+5˚юз699887 0.1 1013228
18:00+6˚з7129193 0.2 1014277
21:00+6˚зсз91487100 0.0 1015384
17 января, вс
вс1700:00+5˚зсз81482100 0.0 1016484
03:00+5˚зсз101583100 0.0 1017681
06:00+5˚сз81386100 0.0 1018684
09:00+5˚сз914801 0.0 1020612
12:00+5˚зсз711821 0.0 1022517
15:00+6˚з7118483 0.0 1022404
18:00+5˚з8138492 0.0 1023452
21:00+5˚з8128659 0.0 1023462
18 января, пн
пн1800:00+5˚зюз9128643 0.0 1023418
03:00+4˚зюз913884 0.0 1021579
06:00+4˚юз912879 0.0 1020540
09:00+4˚юз10148740 0.0 1019601
12:00+5˚зюз9138470 0.0 1018617
15:00+6˚юз81285100 0.0 1016582
18:00+5˚ююз91386100 0.0 1013454
21:00+5˚ю81295100 3.2 1010427
19 января, вт
вт1900:00+7˚юз71196100 7.2 1005212
03:00+7˚ююз4599100 3.8 100066
06:00+8˚зюз7999100 12.3 998163
09:00+9˚юз122093100 7.1 997394
12:00+9˚юз121991100 10.1 996397
15:00+9˚юз132190100 0.9 992439
18:00+9˚ююз132089100 1.4 990406
21:00+9˚ююз111891100 1.1 988348
20 января, ср
ср2000:00+10˚юз121986100 4.4 987330
03:00+9˚ююз122190100 1.5 986407
06:00+9˚ююз122089100 2.1 985387
09:00+9˚ююз132188100 0.7 983445
12:00+9˚ю132289100 2.6 981558
15:00+9˚ююз132187100 0.7 978523
18:00+9˚ю111885100 0.8 978410
21:00+8˚ю122288100 2.4 975554